Regional Weather Roundup
Issued by NWS Charleston, SC

Current Version | Previous Version | Text Only | Print | Product List | Glossary Off
Versions: 1 2 3 4 5 6 7 8 9 10 11 12 13 14 15 16 17 18 19 20 21 22 23 24 25 26 27 28 29 30 31 32 33 34 35 36 37 38 39 40 41 42 43 44 45 46 47 48 49 50

000
ASUS42 KCHS 220027
RWRCHS

REGIONAL WEATHER ROUNDUP
NATIONAL WEATHER SERVICE CHARLESTON SC
800 PM EDT SAT OCT 21 2017

NOTE: "FAIR" INDICATES FEW OR NO CLOUDS BELOW 12,000 FEET WITH NO
SIGNIFICANT WEATHER AND/OR OBSTRUCTIONS TO VISIBILITY.

NOT ALL STATIONS ARE QUALITY CONTROLLED. USE DATA WITH CAUTION...
ESPECIALLY DEWPOINT OBSERVATIONS.

SCZ027-030-031-034>040-042>050-220100-
...SOUTHEAST SOUTH CAROLINA...

CITY           SKY/WX    TMP DP  RH WIND       PRES   REMARKS
N CHARLESTON   CLOUDY    70  64  81 NE7       30.28S
6HR MIN TEMP:  70; 6HR MAX TEMP:  82;

WATERFRONT PRK   N/A     73  67  81 NE10      30.12
JOHNS ISLAND   FAIR      72  66  83 NE8       30.28S
PINOPOLIS        N/A     72  66  83 E5        30.20S
MONCKS CORNER  FAIR      68  63  83 E3        30.29S
SUMMERVILLE    FAIR      66  63  88 CALM      30.30R
BEAUFORT MCAS  PTCLDY    73  67  81 MISG      30.27R
6HR MIN TEMP:  73; 6HR MAX TEMP:  81;

BEAUFORT ARPT  FAIR      72  64  78 NE7       30.26S
HILTON HEAD IS CLEAR     72  68  88 NE7       30.26S
WALTERBORO     MOCLDY    68  63  83 E3        30.29R
ALLENDALE        N/A     68  61  77 CALM        N/A

...SOUTHERN MIDLANDS AND PEE DEE...

CITY           SKY/WX    TMP DP  RH WIND       PRES   REMARKS
GEORGETOWN     FAIR      64  64 100 CALM      30.31S
KINGSTREE      FAIR      64  61  88 CALM      30.30S
ORANGEBURG     PTCLDY    66  55  67 CALM      30.29R
6HR MIN TEMP:  66; 6HR MAX TEMP:  80;

BARNWELL         N/A     70  57  64 CALM      30.29R
AIKEN          FAIR      61  50  67 E5        30.33S
MANNING        FAIR      64  59  82 MISG      30.30R
COLUMBIA       CLOUDY    68  59  73 CALM      30.29R
6HR MIN TEMP:  68; 6HR MAX TEMP:  81;

SUMTER         CLEAR     65  54  66 NE5       30.28R
6HR MIN TEMP:  65; 6HR MAX TEMP:  81;

FLORENCE       CLOUDY    66  57  72 CALM      30.30S
6HR MIN TEMP:  66; 6HR MAX TEMP:  80;

MYRTLE BEACH   CLOUDY    71  64  78 E7        30.32R
N MYRTLE BEACH CLOUDY    72  64  76 E6        30.31R
6HR MIN TEMP:  72; 6HR MAX TEMP:  77;


$$

GAZ063-065-086>088-099>101-113>116-118-119-134>141-150-220100-
...SOUTHEAST GEORGIA...

CITY           SKY/WX    TMP DP  RH WIND       PRES   REMARKS
SAVANNAH ARPT  PTCLDY    73  66  78 E6        30.25S
6HR MIN TEMP:  72; 6HR MAX TEMP:  82;

HUNTER AAF     PTCLDY    72  66  82 E9        30.22S
6HR MIN TEMP:  72; 6HR MAX TEMP:  81; 6HR PCP: TRACE;

FORT STEWART   MOCLDY    71  64  79 E6        30.23R
6HR MIN TEMP:  71; 6HR MAX TEMP:  82;

STATESBORO     MOCLDY    69  60  71 CALM      30.27R
SYLVANIA       PTCLDY    68  64  86 CALM      30.28R
CLAXTON        FAIR      71  66  84 NE3       30.26R

...CSRA...CENTRAL AND FAR SOUTHEAST GEORGIA...

CITY           SKY/WX    TMP DP  RH WIND       PRES   REMARKS
THOMSON        CLOUDY    61  56  83 CALM      30.33R
AUGUSTA-BUSH   PTCLDY    64  58  80 CALM      30.27R
6HR MIN TEMP:  64; 6HR MAX TEMP:  82;

AUGUSTA-DANIEL MOCLDY    73  48  41 E6        30.28R
SWAINSBORO     FAIR      70  61  73 MISG      30.27R
VIDALIA        PTCLDY    72  64  78 E5        30.25S
EASTMAN        MOCLDY    74  50  41 E5        30.26R
HAZLEHURST     FAIR      75  58  55 E7        30.23S
ALMA           PTCLDY    73  65  75 VRB3      30.23R
6HR MIN TEMP:  73; 6HR MAX TEMP:  83;

WAYCROSS       MOCLDY    73  67  81 E8        30.23R
JESUP          NOT AVBL
BAXLEY         FAIR      70  64  83 E5        30.24R
BRUNSWICK      CLOUDY    72  68  88 NE7       30.23S
SAINT SIMONS   PTCLDY    75  71  87 NE10      30.21F
6HR MIN TEMP:  75; 6HR MAX TEMP:  81;


$$

SCZ027-028-034-036>038-045-046-048>050-GAZ119-141-220100-
...LAKE AND SUPPLEMENTAL COASTAL OBSERVATIONS...

STATION/POSITION TIME  TEMP    WIND        PRES    WAVE   SWELL
                       AIR SEA DIR/SP/G            HT/PER HT/PER/DIR
                 (UTC) (F)     (DEG/KT/KT) (MB)    (FT/S) (FT/S/D)
WINYAH BAY       2330   72      70/  5     1026.0S
LAKE MURRAY      2320   74      CALM  /  4 1024.7
ACE BASIN NERRS  2345   71      40/  2     1025.0S
FORT PULASKI     0000   73 74   70/ 13/ 16 1024.7
SAPELO ISLAND    NOT AVBL

$$

ANZ835-935-AMZ111-154-330-350-352-354-370-450-454-472-220100-
...C-MAN AND BUOY OBSERVATIONS...

STATION/POSITION TIME  TEMP    WIND        PRES    WAVE   SWELL
                       AIR SEA DIR/SP/G            HT/PER HT/PER/DIR
                 (UTC) (F)     (DEG/KT/KT) (MB)    (FT/S) (FT/S/D)
BUOY 41004       0010   78 81   90/ 12/ 16 1024.3
BUOY 41008       2350   78 77   90/ 12/ 14 1023.0F   4/ 5   2/110/ 8
FOLLY BEACH CMAN 0000   73      50/ 12/ 14 1025.7R
CAPERS NEARSHORE 0008   71 73   70/ 12/ 17 1024.8R
FRIPP NEARSHORE  0008   74      60/ 16/ 19   N/A


STATION/POSITION TIME  TEMP    WIND        PRES    WAVE   SWELL
                       AIR SEA DIR/SP/G            HT/PER HT/PER/DIR
                 (UTC) (F)     (DEG/KT/KT) (MB)    (FT/S) (FT/S/D)
5E ST. MARYS GA  0000      77                N/A     5/ 5
FRYING PAN BUOY  0010   75 76   50/ 14/ 16 1025.7
BUOY 41025       2350   73 81  360/  8/ 10 1026.9R   3/ 9   3/130/ 9
CAPE LOOKOUT NC  0000   73      60/  9/ 11 1026.8R
BUOY 41002       2350   77 80   80/ 10/ 12 1025.2R   4/ 9   3/ 90/ 9
BUOY 41010       NOT AVBL
ST AUGUSTINE FL  0000   74 78   50/ 16/ 17 1022.2R


$$




USA.gov is the U.S. government's official web portal to all federal, state and local government web resources and services.